Weather in Koytash

Uzbekistan     40°12′47″N   67°20′15″E
temp.,
°C
wind,
m/s
gust,
m/s
humid.,
%
clouds,
%
prec.,
mm/h
press.,
hPa
HPBL,
m
13 april, tue
tue1323:00+8nne115191 0.0 102011
02:00+8ne1150100 0.0 102010
05:00+7ese115284 0.0 102010
08:00+11ene124898 0.0 1021116
11:00+15s25425 0.0 10211234
14:00+18w46374 0.0 10192366
17:00+15ne224747 0.2 1019645
20:00+11ese347651 0.2 101948
14 april, wed
wed1423:00+11se33695 0.2 101932
02:00+10s116182 0.0 101711
05:00+11ssw225752 0.0 101711
08:00+14s22485 0.0 1016170
11:00+18ssw47400 0.0 10151483
14:00+19sw914310 0.0 10142392
17:00+18wsw814330 0.0 10131592
20:00+12wsw22390 0.0 101523
15 april, thu
thu1523:00+10ssw01390 0.0 101410
02:00+10ssw11380 0.0 101410
05:00+9ssw11403 0.0 101410
08:00+13sw11355 0.0 101599
11:00+17wsw2426100 0.0 1014982
14:00+19wsw352369 0.0 10131333
17:00+19n2126100 0.0 1012910
20:00+12ne224770 0.0 101413
16 april, fri
fri1623:00+11n22455 0.0 101312
02:00+10ne224868 0.0 101311
05:00+9ne1151100 0.0 101310
08:00+14ene114395 0.0 1014123
11:00+18nne11322 0.0 10141104
14:00+20nnw22280 0.0 10141726
17:00+20ne22310 0.0 10141467
20:00+15ene22421 0.0 101513
17 april, sat
sat1723:00+13nne22380 0.0 101413
02:00+12nne22435 0.0 101311
05:00+11nne224474 0.0 101311
08:00+15ne23375 0.0 1014158
11:00+19ne223079 0.0 10131149
14:00+20nne232882 0.0 10122194
17:00+19nne3334100 0.0 1012926
20:00+11sse4776100 0.2 1017246